Time,TemperatureF,DewpointF,PressureIn,WindDirection,WindDirectionDegrees,WindSpeedMPH,WindSpeedGustMPH,Humidity,HourlyPrecipIn,Conditions,Clouds,dailyrainin,SoftwareType,DateUTC
2013-06-18 00:02:00,54.0,43.0,-100.00,SSE,152,12.0,16.0,67,0.00,,,-99.99,,2013-06-18 06:02:00,
2013-06-18 00:11:00,53.0,43.0,-100.00,SE,141,12.0,19.0,67,0.00,,,-99.99,,2013-06-18 06:11:00,
2013-06-18 00:23:00,53.0,44.0,-100.00,SE,127,8.0,12.0,71,0.00,,,-99.99,,2013-06-18 06:23:00,
2013-06-18 00:32:00,53.0,44.0,-100.00,SE,133,9.0,15.0,72,0.00,,,-99.99,,2013-06-18 06:32:00,
2013-06-18 00:43:00,53.0,43.0,-100.00,SSE,157,12.0,16.0,68,0.00,,,-99.99,,2013-06-18 06:43:00,
2013-06-18 00:52:00,59.0,41.0,-100.00,SSE,165,16.0,25.0,52,0.00,,,-99.99,,2013-06-18 06:52:00,
2013-06-18 01:02:00,59.0,41.0,-100.00,South,175,19.0,25.0,52,0.00,,,-99.99,,2013-06-18 07:02:00,
2013-06-18 01:12:00,58.0,41.0,-100.00,South,178,16.0,20.0,52,0.00,,,-99.99,,2013-06-18 07:12:00,
2013-06-18 01:22:00,57.0,41.0,-100.00,SSE,158,9.0,16.0,55,0.00,,,-99.99,,2013-06-18 07:22:00,
2013-06-18 01:33:00,53.0,44.0,-100.00,SE,134,12.0,19.0,69,0.00,,,-99.99,,2013-06-18 07:33:00,
2013-06-18 01:43:00,53.0,44.0,-100.00,SSE,151,15.0,20.0,70,0.00,,,-99.99,,2013-06-18 07:43:00,
2013-06-18 01:52:00,52.0,44.0,-100.00,SE,134,11.0,16.0,74,0.00,,,-99.99,,2013-06-18 07:52:00,
2013-06-18 02:01:00,52.0,44.0,-100.00,SSE,152,14.0,20.0,73,0.00,,,-99.99,,2013-06-18 08:01:00,
2013-06-18 02:11:00,52.0,44.0,-100.00,SE,140,13.0,19.0,76,0.00,,,-99.99,,2013-06-18 08:11:00,
2013-06-18 02:23:00,52.0,45.0,-100.00,SSE,164,14.0,21.0,75,0.00,,,-99.99,,2013-06-18 08:23:00,
2013-06-18 02:32:00,50.0,44.0,-100.00,SE,136,11.0,17.0,78,0.00,,,-99.99,,2013-06-18 08:32:00,
2013-06-18 02:43:00,53.0,42.0,-100.00,SSE,165,11.0,14.0,67,0.00,,,-99.99,,2013-06-18 08:43:00,
2013-06-18 02:52:00,50.0,45.0,-100.00,SE,143,9.0,15.0,81,0.00,,,-99.99,,2013-06-18 08:52:00,
2013-06-18 03:01:00,49.0,44.0,-100.00,SE,144,10.0,15.0,83,0.00,,,-99.99,,2013-06-18 09:01:00,
2013-06-18 03:12:00,49.0,44.0,-100.00,SE,143,11.0,15.0,85,0.00,,,-99.99,,2013-06-18 09:12:00,
2013-06-18 03:22:00,51.0,42.0,-100.00,SSE,164,13.0,17.0,71,0.00,,,-99.99,,2013-06-18 09:22:00,
2013-06-18 03:34:00,51.0,41.0,-100.00,SSE,148,9.0,12.0,69,0.00,,,-99.99,,2013-06-18 09:34:00,
2013-06-18 03:43:00,50.0,39.0,-100.00,SE,144,8.0,13.0,66,0.00,,,-99.99,,2013-06-18 09:43:00,
2013-06-18 03:53:00,50.0,40.0,-100.00,SE,143,7.0,11.0,70,0.00,,,-99.99,,2013-06-18 09:53:00,
2013-06-18 04:02:00,50.0,39.0,-100.00,SSE,151,11.0,16.0,65,0.00,,,-99.99,,2013-06-18 10:02:00,
2013-06-18 04:22:00,51.0,39.0,-100.00,SE,145,7.0,11.0,64,0.00,,,-99.99,,2013-06-18 10:22:00,
2013-06-18 04:33:00,51.0,40.0,-100.00,SSE,157,9.0,12.0,67,0.00,,,-99.99,,2013-06-18 10:33:00,
2013-06-18 04:43:00,50.0,39.0,-100.00,SE,136,6.0,11.0,66,0.00,,,-99.99,,2013-06-18 10:43:00,
2013-06-18 04:53:00,49.0,40.0,-100.00,NE,51,2.0,7.0,70,0.00,,,-99.99,,2013-06-18 10:53:00,
2013-06-18 05:02:00,50.0,41.0,-100.00,North,10,2.0,7.0,71,0.00,,,-99.99,,2013-06-18 11:02:00,
2013-06-18 05:11:00,48.0,40.0,-100.00,SSW,212,2.0,5.0,73,0.00,,,-99.99,,2013-06-18 11:11:00,
2013-06-18 05:22:00,48.0,42.0,-100.00,SSW,213,2.0,6.0,80,0.00,,,-99.99,,2013-06-18 11:22:00,
2013-06-18 05:32:00,49.0,41.0,-100.00,SSE,154,4.0,7.0,74,0.00,,,-99.99,,2013-06-18 11:32:00,
2013-06-18 05:43:00,48.0,40.0,-100.00,SSE,157,4.0,7.0,75,0.00,,,-99.99,,2013-06-18 11:43:00,
2013-06-18 05:52:00,48.0,41.0,-100.00,East,99,3.0,6.0,75,0.00,,,-99.99,,2013-06-18 11:52:00,
2013-06-18 06:01:00,49.0,39.0,-100.00,SSE,152,4.0,9.0,67,0.00,,,-99.99,,2013-06-18 12:01:00,
2013-06-18 06:11:00,49.0,39.0,-100.00,SE,143,6.0,9.0,67,0.00,,,-99.99,,2013-06-18 12:11:00,
2013-06-18 06:22:00,49.0,37.0,-100.00,SSE,148,3.0,6.0,64,0.00,,,-99.99,,2013-06-18 12:22:00,
2013-06-18 06:33:00,51.0,37.0,-100.00,SE,137,2.0,6.0,60,0.00,,,-99.99,,2013-06-18 12:33:00,
2013-06-18 06:43:00,51.0,37.0,-100.00,SE,134,2.0,5.0,59,0.00,,,-99.99,,2013-06-18 12:43:00,
2013-06-18 06:52:00,55.0,38.0,-100.00,SSE,161,4.0,9.0,51,0.00,,,-99.99,,2013-06-18 12:52:00,
2013-06-18 07:02:00,59.0,35.0,-100.00,SE,144,5.0,9.0,41,0.00,,,-99.99,,2013-06-18 13:02:00,
2013-06-18 07:12:00,56.0,38.0,-100.00,East,85,2.0,5.0,49,0.00,,,-99.99,,2013-06-18 13:12:00,
2013-06-18 07:22:00,55.0,38.0,-100.00,North,356,4.0,6.0,54,0.00,,,-99.99,,2013-06-18 13:22:00,
2013-06-18 07:33:00,54.0,39.0,-100.00,NNE,16,3.0,6.0,58,0.00,,,-99.99,,2013-06-18 13:33:00,
2013-06-18 07:43:00,53.0,41.0,-100.00,NNW,347,4.0,6.0,65,0.00,,,-99.99,,2013-06-18 13:43:00,
2013-06-18 07:52:00,56.0,39.0,-100.00,WNW,288,1.0,3.0,52,0.00,,,-99.99,,2013-06-18 13:52:00,
2013-06-18 08:02:00,57.0,40.0,-100.00,North,10,2.0,5.0,53,0.00,,,-99.99,,2013-06-18 14:02:00,
2013-06-18 08:11:00,61.0,38.0,-100.00,East,79,0.0,3.0,42,0.00,,,-99.99,,2013-06-18 14:11:00,
2013-06-18 08:22:00,60.0,43.0,-100.00,NNE,28,2.0,6.0,53,0.00,,,-99.99,,2013-06-18 14:22:00,
2013-06-18 08:33:00,60.0,39.0,-100.00,North,3,1.0,4.0,45,0.00,,,-99.99,,2013-06-18 14:33:00,
2013-06-18 08:43:00,62.0,40.0,-100.00,NE,44,2.0,4.0,46,0.00,,,-99.99,,2013-06-18 14:43:00,
2013-06-18 08:53:00,65.0,42.0,-100.00,ESE,109,1.0,4.0,42,0.00,,,-99.99,,2013-06-18 14:53:00,
2013-06-18 09:11:00,65.0,45.0,-100.00,NE,44,3.0,6.0,47,0.00,,,-99.99,,2013-06-18 15:11:00,
2013-06-18 09:22:00,67.0,44.0,-100.00,NNE,30,6.0,9.0,43,0.00,,,-99.99,,2013-06-18 15:22:00,
2013-06-18 09:53:00,71.0,32.0,-100.00,ESE,123,12.0,18.0,24,0.00,,,-99.99,,2013-06-18 15:53:00,
2013-06-18 10:01:00,70.0,31.0,-100.00,SE,127,11.0,19.0,24,0.00,,,-99.99,,2013-06-18 16:01:00,
2013-06-18 10:11:00,68.0,34.0,-100.00,SE,124,11.0,16.0,28,0.00,,,-99.99,,2013-06-18 16:11:00,
2013-06-18 10:22:00,67.0,35.0,-100.00,ESE,116,12.0,17.0,30,0.00,,,-99.99,,2013-06-18 16:22:00,
2013-06-18 10:33:00,66.0,34.0,-100.00,East,100,14.0,17.0,30,0.00,,,-99.99,,2013-06-18 16:33:00,
2013-06-18 10:53:00,67.0,20.0,-100.00,NNE,18,17.0,29.0,17,0.00,,,-99.99,,2013-06-18 16:53:00,
2013-06-18 11:02:00,66.0,23.0,-100.00,NNE,28,12.0,20.0,19,0.00,,,-99.99,,2013-06-18 17:02:00,
2013-06-18 11:11:00,65.0,24.0,-100.00,NE,35,12.0,21.0,21,0.00,,,-99.99,,2013-06-18 17:11:00,
2013-06-18 11:22:00,65.0,30.0,-100.00,NNE,32,14.0,23.0,26,0.03,,,-99.99,,2013-06-18 17:22:00,
2013-06-18 11:43:00,66.0,28.0,-100.00,ENE,71,7.0,13.0,24,0.00,,,-99.99,,2013-06-18 17:43:00,
2013-06-18 11:53:00,65.0,26.0,-100.00,NE,42,7.0,15.0,23,0.00,,,-99.99,,2013-06-18 17:53:00,
2013-06-18 12:02:00,66.0,30.0,-100.00,NE,51,7.0,15.0,26,0.00,,,-99.99,,2013-06-18 18:02:00,
2013-06-18 12:11:00,66.0,25.0,-100.00,NNE,23,6.0,10.0,21,0.00,,,-99.99,,2013-06-18 18:11:00,
2013-06-18 12:22:00,64.0,29.0,-100.00,North,357,7.0,15.0,27,0.00,,,-99.99,,2013-06-18 18:22:00,
2013-06-18 12:33:00,65.0,33.0,-100.00,NNW,347,12.0,19.0,30,0.00,,,-99.99,,2013-06-18 18:33:00,
2013-06-18 12:42:00,63.0,29.0,-100.00,North,353,12.0,21.0,27,0.11,,,-99.99,,2013-06-18 18:42:00,
2013-06-18 12:53:00,67.0,30.0,-100.00,ENE,61,12.0,20.0,24,0.00,,,-99.99,,2013-06-18 18:53:00,
2013-06-18 13:01:00,69.0,30.0,-100.00,East,88,12.0,19.0,23,0.00,,,-99.99,,2013-06-18 19:01:00,
2013-06-18 13:11:00,69.0,32.0,-100.00,East,93,12.0,19.0,25,0.00,,,-99.99,,2013-06-18 19:11:00,
2013-06-18 13:22:00,68.0,27.0,-100.00,SE,138,8.0,17.0,21,0.00,,,-99.99,,2013-06-18 19:22:00,
2013-06-18 13:33:00,68.0,27.0,-100.00,SE,145,9.0,13.0,21,0.00,,,-99.99,,2013-06-18 19:33:00,
2013-06-18 13:43:00,68.0,27.0,-100.00,SE,145,10.0,14.0,21,0.00,,,-99.99,,2013-06-18 19:43:00,
2013-06-18 13:52:00,68.0,30.0,-100.00,South,191,6.0,11.0,24,0.00,,,-99.99,,2013-06-18 19:52:00,
2013-06-18 14:01:00,68.0,28.0,-100.00,WSW,253,4.0,8.0,22,0.00,,,-99.99,,2013-06-18 20:01:00,
2013-06-18 14:11:00,67.0,30.0,-100.00,West,264,7.0,14.0,26,0.00,,,-99.99,,2013-06-18 20:11:00,
2013-06-18 14:23:00,65.0,31.0,-100.00,West,274,14.0,20.0,29,0.00,,,-99.99,,2013-06-18 20:23:00,
2013-06-18 14:33:00,64.0,30.0,-100.00,West,265,13.0,19.0,28,0.00,,,-99.99,,2013-06-18 20:33:00,
2013-06-18 15:01:00,63.0,33.0,-100.00,ESE,104,17.0,27.0,32,0.00,,,-99.99,,2013-06-18 21:01:00,
2013-06-18 15:11:00,66.0,33.0,-100.00,ESE,107,12.0,20.0,29,0.00,,,-99.99,,2013-06-18 21:11:00,
2013-06-18 15:22:00,67.0,32.0,-100.00,ESE,123,11.0,16.0,27,0.00,,,-99.99,,2013-06-18 21:22:00,
2013-06-18 15:33:00,66.0,31.0,-100.00,ESE,113,10.0,17.0,27,0.00,,,-99.99,,2013-06-18 21:33:00,
2013-06-18 15:43:00,68.0,31.0,-100.00,ESE,110,9.0,15.0,25,0.00,,,-99.99,,2013-06-18 21:43:00,
2013-06-18 15:52:00,68.0,32.0,-100.00,East,100,5.0,9.0,26,0.00,,,-99.99,,2013-06-18 21:52:00,
2013-06-18 16:01:00,69.0,31.0,-100.00,SE,127,7.0,15.0,25,0.00,,,-99.99,,2013-06-18 22:01:00,
2013-06-18 16:11:00,70.0,33.0,-100.00,ESE,103,5.0,10.0,25,0.00,,,-99.99,,2013-06-18 22:11:00,
2013-06-18 16:22:00,69.0,32.0,-100.00,East,90,11.0,17.0,25,0.00,,,-99.99,,2013-06-18 22:22:00,
2013-06-18 16:34:00,68.0,32.0,-100.00,East,83,14.0,21.0,26,0.00,,,-99.99,,2013-06-18 22:34:00,
2013-06-18 16:42:00,69.0,30.0,-100.00,East,90,14.0,21.0,24,0.00,,,-99.99,,2013-06-18 22:42:00,
2013-06-18 16:53:00,71.0,29.0,-100.00,East,88,12.0,20.0,21,0.00,,,-99.99,,2013-06-18 22:53:00,
2013-06-18 17:01:00,69.0,29.0,-100.00,East,93,11.0,16.0,22,0.00,,,-99.99,,2013-06-18 23:01:00,
2013-06-18 17:11:00,68.0,31.0,-100.00,East,89,10.0,16.0,24,0.00,,,-99.99,,2013-06-18 23:11:00,
2013-06-18 17:23:00,69.0,29.0,-100.00,East,79,5.0,9.0,22,0.00,,,-99.99,,2013-06-18 23:23:00,
2013-06-18 17:36:00,71.0,30.0,-100.00,ENE,76,4.0,7.0,22,0.00,,,-99.99,,2013-06-18 23:36:00,
2013-06-18 17:45:00,70.0,29.0,-100.00,East,85,4.0,9.0,22,0.00,,,-99.99,,2013-06-18 23:45:00,
2013-06-18 17:53:00,69.0,33.0,-100.00,ESE,103,2.0,5.0,27,0.00,,,-99.99,,2013-06-18 23:53:00,
2013-06-18 18:01:00,69.0,33.0,-100.00,North,1,3.0,6.0,26,0.00,,,-99.99,,2013-06-19 00:01:00,
2013-06-18 18:11:00,70.0,33.0,-100.00,North,3,2.0,5.0,25,0.00,,,-99.99,,2013-06-19 00:11:00,
2013-06-18 18:22:00,70.0,30.0,-100.00,NNW,340,6.0,10.0,23,0.00,,,-99.99,,2013-06-19 00:22:00,
2013-06-18 18:33:00,70.0,31.0,-100.00,NE,35,4.0,7.0,23,0.00,,,-99.99,,2013-06-19 00:33:00,
2013-06-18 18:43:00,70.0,32.0,-100.00,NE,45,4.0,9.0,24,0.00,,,-99.99,,2013-06-19 00:43:00,
2013-06-18 18:53:00,70.0,29.0,-100.00,ENE,68,4.0,7.0,22,0.00,,,-99.99,,2013-06-19 00:53:00,
2013-06-18 19:01:00,69.0,29.0,-100.00,ESE,114,4.0,9.0,22,0.00,,,-99.99,,2013-06-19 01:01:00,
2013-06-18 19:11:00,70.0,31.0,-100.00,SE,134,2.0,6.0,24,0.00,,,-99.99,,2013-06-19 01:11:00,
2013-06-18 19:22:00,68.0,31.0,-100.00,SE,141,12.0,19.0,25,0.00,,,-99.99,,2013-06-19 01:22:00,
2013-06-18 19:32:00,68.0,32.0,-100.00,SE,144,11.0,16.0,25,0.00,,,-99.99,,2013-06-19 01:32:00,
2013-06-18 19:42:00,68.0,32.0,-100.00,SE,138,10.0,16.0,26,0.00,,,-99.99,,2013-06-19 01:42:00,
2013-06-18 19:53:00,67.0,33.0,-100.00,SE,141,14.0,19.0,28,0.00,,,-99.99,,2013-06-19 01:53:00,
2013-06-18 20:01:00,67.0,33.0,-100.00,SE,143,14.0,19.0,28,0.00,,,-99.99,,2013-06-19 02:01:00,
2013-06-18 20:11:00,66.0,33.0,-100.00,SE,138,9.0,16.0,29,0.00,,,-99.99,,2013-06-19 02:11:00,
2013-06-18 20:21:00,66.0,33.0,-100.00,SE,145,10.0,13.0,30,0.00,,,-99.99,,2013-06-19 02:21:00,
2013-06-18 20:32:00,65.0,33.0,-100.00,SSE,152,9.0,12.0,30,0.00,,,-99.99,,2013-06-19 02:32:00,
2013-06-18 20:42:00,64.0,37.0,-100.00,SE,130,11.0,24.0,37,0.00,,,-99.99,,2013-06-19 02:42:00,
2013-06-18 20:51:00,61.0,38.0,-100.00,East,100,21.0,32.0,43,0.00,,,-99.99,,2013-06-19 02:51:00,
2013-06-18 21:01:00,60.0,39.0,-100.00,ESE,109,19.0,33.0,46,0.00,,,-99.99,,2013-06-19 03:01:00,
2013-06-18 21:11:00,60.0,39.0,-100.00,ESE,121,12.0,21.0,45,0.00,,,-99.99,,2013-06-19 03:11:00,
2013-06-18 21:21:00,60.0,39.0,-100.00,ESE,119,12.0,22.0,45,0.00,,,-99.99,,2013-06-19 03:21:00,
2013-06-18 21:33:00,60.0,39.0,-100.00,ESE,119,12.0,22.0,46,0.00,,,-99.99,,2013-06-19 03:33:00,
2013-06-18 21:42:00,59.0,38.0,-100.00,ESE,114,11.0,17.0,46,0.00,,,-99.99,,2013-06-19 03:42:00,
2013-06-18 21:52:00,58.0,38.0,-100.00,ESE,117,8.0,12.0,47,0.00,,,-99.99,,2013-06-19 03:52:00,
2013-06-18 22:01:00,57.0,38.0,-100.00,SSE,147,9.0,12.0,49,0.00,,,-99.99,,2013-06-19 04:01:00,
2013-06-18 22:11:00,59.0,39.0,-100.00,SSE,152,16.0,30.0,47,0.00,,,-99.99,,2013-06-19 04:11:00,
2013-06-18 22:32:00,58.0,39.0,-100.00,SSE,154,19.0,29.0,49,0.00,,,-99.99,,2013-06-19 04:32:00,
2013-06-18 22:42:00,58.0,40.0,-100.00,SSE,150,23.0,37.0,50,0.00,,,-99.99,,2013-06-19 04:42:00,
2013-06-18 22:53:00,58.0,40.0,-100.00,SSE,155,20.0,32.0,51,0.00,,,-99.99,,2013-06-19 04:53:00,
2013-06-18 23:01:00,58.0,40.0,-100.00,SSE,152,22.0,29.0,51,0.00,,,-99.99,,2013-06-19 05:01:00,
2013-06-18 23:11:00,57.0,40.0,-100.00,SSE,147,19.0,27.0,52,0.00,,,-99.99,,2013-06-19 05:11:00,
2013-06-18 23:22:00,56.0,40.0,-100.00,SSE,150,15.0,22.0,54,0.00,,,-99.99,,2013-06-19 05:22:00,
2013-06-18 23:32:00,56.0,40.0,-100.00,SSE,152,14.0,21.0,55,0.00,,,-99.99,,2013-06-19 05:32:00,
2013-06-18 23:42:00,56.0,41.0,-100.00,SSE,158,17.0,24.0,57,0.00,,,-99.99,,2013-06-19 05:42:00,
2013-06-18 23:52:00,56.0,41.0,-100.00,SSE,160,19.0,29.0,58,0.00,,,-99.99,,2013-06-19 05:52:00,